This demonstration page uses our WeatherBlox Daily Observations layout. Learn more.

Left ArrowRight Arrow

39.92423, -83.80882

Hourly Observations for November 25, 2020

Temp ( °F °C ) Dew Point ( °F °C ) Humidity (%) Winds ( mph kmh ) Pressure ( in mb ) Visibility ( mi km ) Precip ( " mm )
12:56 am 00:56 Clear 40 4.4 35 1.7 83 83 SSE 7 11 30.06 1018 10 16 N/A
1:56 am 01:56 Cloudy 41 5 36 2.2 82 82 SSE 7 11 30.04 1017 10 16 N/A
2:56 am 02:56 Mostly Cloudy 42 5.6 36 2.2 79 79 SSE 6 9 30.04 1017 10 16 N/A
3:56 am 03:56 Cloudy with Light Rain 45 7.2 37 2.8 74 74 S 10 17 30.04 1017 10 16 N/A
4:56 am 04:56 Cloudy with Rain 45 7.2 40 4.4 83 83 SSW 9 15 30.05 1018 10 16 N/A
5:56 am 05:56 Cloudy with Light Rain 43 6.1 43 6.1 100 100 S 9 15 30.04 1017 8 13 N/A
6:35 am 06:35 Cloudy with Rain 45 7 45 7 100 100 S 9 15 30.03 1017 8 13 N/A
6:56 am 06:56 Cloudy with Light Rain 44 6.7 44 6.7 100 100 S 7 11 30.03 1017 10 16 N/A
7:10 am 07:10 Cloudy with Light Rain 45 7 45 7 100 100 S 8 13 30.03 1017 10 16 N/A
7:56 am 07:56 Cloudy with Light Rain 44 6.7 44 6.7 100 100 S 14 22 30.03 1017 8 13 N/A
8:18 am 08:18 Cloudy with Light Rain 45 7 45 7 100 100 S 10 17 30.02 1017 5 8 N/A
8:31 am 08:31 Cloudy with Rain 45 7 45 7 100 100 S 13 20 30.02 1017 6 10 N/A
8:38 am 08:38 Cloudy with Rain 45 7 45 7 100 100 S 14 22 30.02 1017 5 8 N/A
8:56 am 08:56 Cloudy with Rain 46 7.8 46 7.8 100 100 S 14 22 30.02 1017 6 10 N/A
9:56 am 09:56 Cloudy with Light Rain 47 8.3 47 8.3 100 100 S 14 22 29.99 1016 10 16 N/A
10:11 am 10:11 Cloudy with Light Rain 46 8 46 8 100 100 SSE 16 26 29.99 1016 7 11 N/A
10:56 am 10:56 Cloudy with Light Rain 49 9.4 49 9.4 100 100 SSE 14 22 29.96 1015 6 10 N/A
11:35 am 11:35 Cloudy with Light Rain 48 9 48 9 100 100 SSE 15 24 29.95 1014 7 11 N/A
11:56 am 11:56 Cloudy with Light Rain 50 10 50 10 100 100 SSE 17 28 29.93 1014 10 16 N/A
12:21 pm 12:21 Cloudy with Light Rain 50 10 50 10 100 100 S 13 20 29.91 1013 10 16 N/A
12:39 pm 12:39 Cloudy with Light Rain 50 10 50 10 100 100 SSE 15 24 29.90 1013 7 11 N/A
12:56 pm 12:56 Cloudy with Light Rain 50 10 50 10 100 100 S 14 22 29.90 1013 6 10 N/A
1:23 pm 13:23 Cloudy with Light Rain 50 10 50 10 100 100 S 10 17 29.89 1012 9 14 N/A
1:54 pm 13:54 Cloudy with Light Rain 50 10 50 10 100 100 S 12 19 29.88 1012 10 16 N/A
1:56 pm 13:56 Cloudy with Light Rain 50 10 50 10 100 100 S 12 19 29.88 1012 10 16 N/A
2:56 pm 14:56 Cloudy 51 10.6 51 10.6 100 100 S 12 19 29.86 1011 10 16 N/A
3:09 pm 15:09 Cloudy 52 11 52 11 100 100 S 13 20 29.85 1011 10 16 N/A
3:56 pm 15:56 Cloudy 52 11.1 52 11.1 100 100 SSE 14 22 29.84 1010 10 16 N/A
4:19 pm 16:19 Cloudy 52 11 52 11 100 100 SSE 10 17 29.83 1010 10 16 N/A
4:56 pm 16:56 Cloudy with Light Rain 51 10.6 51 10.6 100 100 SSE 9 15 29.83 1010 8 13 N/A
5:04 pm 17:04 Cloudy with Light Rain 52 11 52 11 100 100 SSE 8 13 29.82 1010 10 16 N/A
5:56 pm 17:56 Mostly Cloudy 51 10.6 51 10.6 100 100 SSE 14 22 29.81 1010 10 16 N/A
6:21 pm 18:21 Mostly Cloudy 52 11 52 11 100 100 SSE 13 20 29.80 1009 10 16 N/A
6:47 pm 18:47 Mostly Cloudy 52 11 52 11 100 100 SSE 13 20 29.79 1009 10 16 N/A
7:56 pm 19:56 Cloudy 51 10.6 51 10.6 100 100 SSE 9 15 29.77 1008 10 16 N/A
8:40 pm 20:40 Cloudy with Rain 54 12 54 12 100 100 SSW 9 15 29.76 1008 8 13 N/A
8:54 pm 20:54 Cloudy with Light Rain 54 12 54 12 100 100 SSW 12 19 29.76 1008 7 11 N/A
8:56 pm 20:56 Cloudy with Light Rain 54 12.2 54 12.2 100 100 SSW 14 22 29.77 1008 8 13 N/A
9:08 pm 21:08 Cloudy with Light Rain 55 13 55 13 100 100 SSW 10 17 29.75 1007 10 16 N/A
9:16 pm 21:16 Cloudy with Light Rain 55 13 55 13 100 100 S 10 17 29.75 1007 10 16 N/A
9:56 pm 21:56 Cloudy 55 12.8 55 12.8 100 100 SSW 13 20 29.78 1009 10 16 N/A
10:56 pm 22:56 Cloudy 54 12.2 53 11.7 97 97 WSW 16 26 29.80 1009 10 16 N/A
11:56 pm 23:56 Cloudy 53 11.7 51 10.6 93 93 WSW 18 30 29.83 1010 10 16 N/A

Powered by AerisWeather